Weather in Ivanovka

Russia / Primorsky Krai     43°57′54″N   132°28′46″E
temp.,
°C
wind,
m/s
gust,
m/s
humid.,
%
clouds,
%
prec.,
mm/h
press.,
hPa
HPBL,
m
8 may, sat
sat801:00+9sw4893100 5.2 990587
04:00+9wsw61288100 7.1 992904
07:00+9wsw5118616 0.0 995542
10:00+13ssw566571 0.0 996708
13:00+15s61348100 0.0 9951324
16:00+16ssw51154100 0.0 9921165
19:00+13s61361100 0.0 9911227
22:00+10ssw51191100 2.9 990944
9 may, sun
sun901:00+8ssw4892100 3.6 991447
04:00+8ssw4890100 4.3 990534
07:00+7sw4794100 0.7 992545
10:00+7ssw3492100 2.6 993471
13:00+9wsw5786100 1.3 9941337
16:00+6w5591100 2.2 9961002
19:00+7nw379199 0.2 1000561
22:00+6nw51192100 0.3 1003648
10 may, mon
mon1001:00+6wnw51093100 0.3 1005731
04:00+6nw41094100 0.5 1006717
07:00+6nw3995100 0.3 1008718
10:00+7nw3794100 0.4 1010826
13:00+7nw3589100 0.1 1011695
16:00+8nnw2490100 0.4 1012512
19:00+7n2594100 0.3 1013335
22:00+7n1194100 0.3 101421
11 may, tue
tue1101:00+6nw1295100 0.0 101563
04:00+6nw119596 0.0 101639
07:00+6nnw139296 0.0 1017225
10:00+9ne248099 0.0 1018684
13:00+12ne2262100 0.2 10181407
16:00+13ene125812 0.3 10171202
19:00+13ese23656 0.0 1017175
22:00+7ssw357961 0.0 101880
12 may, wed
wed1201:00+5s2390100 0.0 101975
04:00+5sse2292100 0.0 101836
07:00+6sse2684100 0.0 1018292
10:00+11s71263100 0.0 1017957
13:00+12ssw71362100 0.0 10161100
16:00+12ssw81463100 0.0 10141024
19:00+10ssw71671100 0.1 1014930
22:00+8s71781100 0.5 1014758